User: anonymous   Login
Location: Unspecified
(0.0000°N, 0.0000°E)
Time: 23:29:03
(UTC+01:00)
Language:

Centaur AC-64 - Orbit

View from above orbital plane
View from above orbital plane
View from above satellite
View from above satellite

Ground track
Ground track

The orbit data is extracted from the following two-line orbital elements,

1 15874U 85055B   15063.39503767  .00006357  00000-0  20750-2 0  9990
2 15874 022.9663 209.3041 6603993 083.9675 346.4705 03.15776141303873
Epoch (UTC): 04 March 2015 09:28:51
Eccentricity: 0.6603993
inclination: 22.9663°
perigee height: 286 km
apogee height: 26207 km
right ascension of ascending node: 209.3041°
argument of perigee: 83.9675°
revolutions per day: 3.15776141
mean anomaly at epoch: 346.4705°
orbit number at epoch: 30387

The dashed part of the orbit path shows where the satellite is in the earth's shadow,  

DLR